User: anonymous   Login
Location: Unspecified
(0.0000°N, 0.0000°E)
Time: 16:23:33
(UTC+00:00)
Language:

Uosat 5 - Orbit

View from above orbital plane
View from above orbital plane
View from above satellite
View from above satellite

Ground track
Ground track

The orbit data is extracted from the following two-line orbital elements,

1 21578U 91050E   18112.54752324  .00000104  00000-0  35726-4 0  9995
2 21578  98.4864 137.0947 0003011  23.8333 127.8082 14.53984559413405
Epoch (UTC): 22 April 2018 13:08:26
Eccentricity: 0.0003011
inclination: 98.4864°
perigee height: 710 km
apogee height: 715 km
right ascension of ascending node: 137.0947°
argument of perigee: 23.8333°
revolutions per day: 14.53984559
mean anomaly at epoch: 127.8082°
orbit number at epoch: 41340

The dashed part of the orbit path shows where the satellite is in the earth's shadow,  

DLR